Temp
-13 -13 -13 -13 -13 -13 -13 -12 -12 -12 -12 -12 -13 -13 -13 -13 -13 -13 -13 -13 -13 -13 -13 -13 -13 -13 -13 -14 -13 -13 -13 -13 -13 -13 -13 -13 -13 -13 -12 -12 -12 -12
-14 -13 -13 -13 -13 -13 -13 -12 -12 -12 -12 -12 -13 -13 -13 -13 -13 -13 -12 -12 -12 -13 -13 -13 -13 -13 -13 -13 -13 -13 -13 -13 -13 -13 -13 -13 -13 -13 -12 -12 -12 -12
-14 -14 -13 -13 -13 -13 -13 -13 -12 -12 -12 -12 -12 -13 -13 -13 -13 -13 -13 -12 -12 -12 -12 -13 -13 -13 -13 -13 -13 -13 -13 -13 -13 -13 -13 -13 -13 -13 -13 -12 -12 -12
-14 -14 -14 -13 -13 -13 -13 -13 -13 -12 -12 -12 -12 -13 -13 -13 -13 -13 -13 -12 -12 -12 -12 -12 -12 -13 -13 -12 -12 -12 -13 -13 -13 -13 -13 -13 -13 -13 -13 -13 -13 -12
-14 -14 -14 -14 -13 -13 -13 -12 -12 -12 -12 -12 -12 -12 -13 -13 -13 -13 -13 -13 -12 -12 -12 -12 -12 -12 -12 -12 -12 -12 -12 -13 -13 -13 -13 -13 -13 -13 -13 -13 -13 -13
-14 -14 -14 -14 -13 -13 -12 -12 -12 -12 -12 -12 -12 -12 -13 -13 -13 -13 -13 -13 -13 -12 -12 -12 -12 -12 -12 -12 -12 -12 -12 -13 -13 -13 -13 -13 -13 -13 -13 -13 -13 -13
-14 -14 -14 -13 -13 -12 -12 -12 -12 -12 -12 -12 -12 -12 -12 -12 -13 -13 -13 -13 -13 -12 -12 -12 -12 -12 -13 -12 -12 -12 -12 -13 -13 -13 -13 -13 -13 -13 -13 -13 -13 -13
-15 -14 -14 -13 -13 -12 -12 -12 -12 -12 -12 -12 -12 -12 -12 -12 -13 -13 -13 -13 -13 -13 -12 -12 -12 -13 -13 -13 -12 -12 -12 -13 -13 -13 -13 -13 -13 -13 -13 -13 -13 -13
-15 -14 -14 -14 -13 -13 -13 -13 -13 -13 -13 -12 -13 -13 -12 -12 -12 -13 -13 -13 -12 -12 -12 -12 -12 -13 -13 -13 -13 -13 -13 -13 -13 -13 -13 -13 -13 -13 -13 -13 -13 -13
-15 -15 -14 -14 -13 -13 -13 -13 -13 -13 -13 -13 -13 -13 -13 -12 -12 -13 -13 -13 -12 -12 -12 -12 -12 -13 -13 -13 -13 -13 -13 -13 -13 -13 -13 -13 -13 -13 -13 -13 -14 -13
-15 -15 -15 -14 -13 -13 -13 -13 -13 -13 -13 -13 -13 -13 -12 -12 -13 -13 -12 -13 -13 -12 -12 -12 -12 -13 -13 -13 -13 -13 -13 -13 -13 -13 -13 -13 -13 -13 -13 -13 -13 -13
-15 -15 -15 -14 -14 -14 -14 -14 -13 -13 -13 -13 -13 -13 -13 -12 -13 -13 -12 -13 -13 -13 -12 -13 -13 -13 -12 -13 -13 -13 -13 -13 -13 -13 -13 -13 -13 -13 -13 -13 -13 -13
-15 -15 -15 -14 -14 -14 -14 -14 -14 -13 -13 -14 -13 -13 -13 -13 -12 -12 -12 -13 -13 -13 -12 -13 -13 -13 -12 -13 -13 -13 -13 -13 -13 -13 -13 -13 -13 -13 -13 -13 -13 -13
-15 -15 -15 -14 -13 -14 -14 -14 -14 -13 -13 -14 -13 -13 -13 -13 -12 -12 -12 -12 -13 -13 -13 -13 -13 -13 -13 -13 -13 -13 -13 -13 -13 -13 -13 -13 -13 -13 -13 -13 -13 -13
-15 -15 -15 -14 -13 -14 -14 -14 -14 -14 -13 -14 -14 -13 -13 -13 -12 -12 -12 -12 -12 -12 -12 -13 -13 -13 -13 -13 -13 -13 -13 -13 -13 -13 -14 -14 -13 -13 -14 -14 -13 -13
-15 -14 -15 -14 -13 -14 -14 -14 -14 -14 -14 -14 -14 -13 -13 -13 -12 -12 -12 -12 -12 -12 -12 -13 -13 -13 -13 -13 -13 -13 -13 -13 -13 -14 -14 -14 -14 -14 -14 -14 -14 -13
-15 -15 -15 -14 -13 -13 -14 -14 -14 -14 -14 -14 -14 -14 -13 -13 -13 -13 -13 -13 -13 -13 -13 -13 -13 -13 -13 -13 -13 -13 -13 -13 -13 -13 -14 -14 -14 -14 -14 -14 -14 -14
-15 -15 -15 -14 -14 -14 -14 -14 -14 -14 -14 -14 -14 -14 -14 -13 -13 -13 -13 -13 -13 -13 -13 -13 -13 -13 -13 -13 -13 -13 -13 -13 -13 -13 -13 -13 -13 -14 -14 -14 -14 -14
-16 -16 -15 -15 -14 -14 -14 -13 -13 -13 -13 -13 -13 -13 -14 -14 -13 -13 -14 -14 -13 -13 -13 -13 -13 -13 -13 -13 -13 -13 -13 -13 -13 -13 -13 -13 -13 -13 -14 -14 -14 -14
-16 -16 -16 -15 -15 -15 -15 -14 -13 -13 -13 -13 -13 -13 -14 -14 -14 -14 -14 -14 -14 -13 -13 -13 -13 -13 -13 -13 -13 -13 -13 -14 -14 -13 -13 -13 -13 -13 -13 -14 -13 -13
-16 -16 -16 -16 -15 -15 -15 -15 -14 -13 -13 -13 -13 -13 -14 -14 -14 -14 -14 -14 -14 -14 -14 -14 -14 -13 -13 -13 -13 -13 -13 -14 -14 -14 -13 -13 -13 -13 -13 -14 -13 -13
-17 -16 -16 -16 -16 -16 -15 -15 -15 -14 -14 -14 -13 -14 -14 -14 -14 -15 -14 -14 -15 -15 -15 -15 -14 -14 -14 -14 -14 -14 -14 -14 -14 -14 -13 -13 -13 -13 -13 -13 -13 -13
-17 -17 -16 -16 -16 -16 -16 -16 -15 -15 -14 -14 -14 -14 -14 -14 -14 -15 -15 -15 -15 -15 -15 -15 -15 -15 -14 -14 -14 -14 -14 -14 -14 -14 -13 -13 -13 -13 -13 -13 -13 -13
-17 -17 -17 -17 -17 -17 -16 -16 -16 -16 -15 -15 -14 -14 -14 -15 -15 -15 -15 -15 -15 -15 -15 -15 -15 -15 -15 -14 -14 -14 -14 -14 -14 -14 -13 -13 -13 -13 -13 -14 -14 -13
-18 -17 -18 -18 -18 -17 -17 -16 -16 -17 -16 -16 -15 -15 -15 -15 -15 -16 -16 -16 -15 -15 -15 -15 -15 -15 -15 -15 -14 -14 -14 -14 -14 -14 -13 -13 -13 -13 -14 -14 -14 -14
-18 -18 -18 -18 -18 -18 -18 -17 -17 -17 -17 -16 -16 -16 -15 -15 -15 -15 -16 -16 -16 -15 -15 -15 -15 -15 -15 -15 -14 -14 -14 -14 -14 -14 -13 -13 -14 -14 -14 -14 -14 -14
Height
5749 5752 5754 5757 5761 5764 5766 5769 5773 5775 5778 5782 5785 5788 5791 5793 5795 5798 5799 5801 5802 5803 5805 5806 5807 5808 5810 5811 5812 5813 5815 5817 5818 5819 5820 5821 5821 5822 5822 5823 5823 5823
5743 5747 5750 5752 5755 5758 5761 5763 5766 5769 5772 5776 5779 5782 5785 5788 5791 5793 5795 5797 5798 5800 5801 5802 5803 5804 5805 5806 5807 5809 5811 5813 5814 5815 5816 5817 5818 5819 5819 5819 5820 5820
5737 5741 5744 5747 5750 5754 5757 5758 5760 5762 5766 5770 5773 5776 5779 5783 5787 5789 5791 5793 5794 5796 5797 5798 5799 5800 5801 5802 5803 5804 5806 5809 5810 5812 5813 5814 5815 5815 5816 5816 5817 5817
5732 5736 5739 5742 5745 5748 5751 5753 5755 5757 5761 5765 5768 5771 5774 5778 5782 5784 5786 5788 5790 5792 5793 5795 5796 5796 5797 5798 5799 5801 5803 5805 5807 5808 5809 5810 5811 5812 5812 5813 5813 5813
5727 5731 5734 5737 5740 5743 5746 5749 5750 5753 5757 5760 5762 5766 5769 5773 5776 5778 5781 5783 5785 5787 5789 5791 5792 5792 5794 5795 5796 5798 5799 5801 5803 5804 5806 5807 5808 5808 5809 5810 5810 5810
5722 5726 5729 5731 5735 5738 5742 5744 5746 5749 5753 5755 5757 5760 5763 5766 5769 5772 5775 5777 5779 5782 5784 5786 5787 5788 5790 5791 5793 5795 5796 5798 5799 5801 5802 5803 5804 5805 5805 5806 5807 5807
5716 5721 5724 5726 5730 5734 5737 5739 5741 5743 5746 5749 5752 5755 5757 5760 5763 5765 5769 5771 5774 5777 5780 5781 5783 5785 5786 5787 5789 5791 5793 5794 5796 5797 5798 5800 5801 5802 5802 5803 5803 5804
5709 5714 5718 5721 5725 5729 5732 5733 5734 5736 5740 5744 5747 5750 5752 5757 5760 5761 5763 5766 5769 5772 5775 5776 5779 5781 5782 5784 5786 5788 5790 5791 5792 5793 5795 5796 5797 5798 5799 5799 5800 5800
5703 5706 5711 5716 5719 5722 5725 5725 5727 5731 5735 5739 5743 5746 5749 5753 5757 5758 5758 5760 5764 5767 5769 5770 5773 5776 5779 5781 5783 5785 5786 5788 5789 5790 5791 5793 5794 5795 5795 5796 5796 5797
5697 5700 5705 5710 5713 5716 5718 5720 5723 5726 5730 5734 5738 5742 5745 5747 5751 5752 5753 5755 5758 5762 5764 5765 5768 5771 5774 5776 5779 5780 5782 5784 5786 5787 5788 5789 5790 5791 5792 5792 5793 5793
5691 5694 5698 5703 5707 5711 5714 5717 5719 5722 5726 5730 5733 5737 5739 5741 5743 5746 5747 5749 5752 5755 5758 5761 5764 5766 5768 5771 5773 5775 5777 5779 5782 5783 5784 5785 5786 5787 5788 5789 5790 5790
5685 5689 5693 5697 5702 5706 5709 5712 5715 5717 5721 5724 5727 5731 5733 5734 5737 5739 5740 5744 5747 5750 5753 5755 5759 5761 5763 5765 5768 5770 5773 5775 5777 5779 5780 5781 5782 5783 5784 5785 5787 5787
5680 5685 5689 5692 5696 5700 5704 5707 5710 5712 5715 5718 5721 5725 5727 5729 5732 5734 5736 5739 5742 5745 5748 5751 5754 5756 5759 5761 5764 5766 5768 5770 5772 5774 5775 5777 5778 5779 5781 5782 5783 5784
5674 5679 5684 5687 5690 5694 5698 5701 5704 5707 5709 5712 5715 5718 5721 5724 5726 5729 5733 5736 5738 5740 5743 5745 5748 5751 5754 5757 5760 5762 5764 5766 5768 5770 5771 5773 5774 5775 5776 5778 5780 5781
5668 5673 5678 5682 5684 5687 5691 5694 5697 5700 5703 5706 5709 5712 5716 5718 5720 5724 5728 5731 5732 5734 5736 5739 5741 5745 5749 5752 5755 5757 5759 5762 5763 5765 5767 5768 5770 5771 5772 5774 5776 5777
5661 5666 5672 5676 5678 5681 5685 5689 5692 5695 5698 5702 5704 5706 5709 5712 5715 5718 5722 5725 5726 5727 5730 5733 5736 5739 5743 5747 5750 5752 5754 5756 5758 5760 5762 5763 5765 5767 5768 5770 5772 5773
5654 5659 5665 5670 5671 5674 5679 5683 5686 5689 5693 5697 5699 5701 5704 5707 5709 5711 5714 5717 5720 5722 5725 5728 5731 5735 5739 5742 5745 5747 5749 5751 5753 5755 5756 5758 5760 5762 5763 5765 5767 5769
5647 5652 5658 5663 5665 5668 5672 5677 5680 5684 5688 5691 5693 5695 5698 5701 5704 5705 5707 5710 5714 5717 5720 5723 5726 5731 5735 5737 5739 5742 5744 5746 5747 5749 5751 5753 5755 5757 5758 5760 5762 5764
5640 5645 5651 5655 5658 5661 5665 5670 5674 5677 5682 5685 5686 5687 5690 5693 5697 5699 5701 5704 5708 5712 5715 5718 5721 5726 5729 5732 5734 5736 5738 5741 5742 5744 5746 5747 5749 5751 5753 5754 5757 5759
5634 5639 5644 5648 5651 5654 5659 5664 5668 5670 5674 5677 5678 5678 5682 5687 5690 5693 5695 5698 5702 5705 5709 5712 5715 5719 5723 5726 5728 5730 5732 5734 5737 5738 5740 5742 5743 5746 5748 5749 5751 5753
5628 5634 5640 5644 5646 5648 5653 5658 5662 5664 5665 5665 5667 5669 5674 5680 5683 5686 5690 5692 5696 5699 5702 5706 5709 5712 5715 5719 5722 5724 5726 5728 5730 5731 5734 5736 5738 5740 5743 5745 5746 5748
5624 5628 5634 5640 5642 5643 5646 5651 5655 5657 5657 5657 5661 5665 5670 5673 5677 5681 5685 5688 5690 5693 5696 5700 5703 5706 5710 5713 5716 5719 5720 5722 5724 5725 5727 5730 5732 5735 5737 5739 5741 5742
5619 5622 5626 5631 5635 5637 5640 5644 5648 5650 5650 5652 5656 5660 5663 5666 5670 5673 5677 5680 5683 5687 5691 5694 5698 5701 5704 5707 5710 5712 5714 5716 5718 5719 5721 5724 5726 5728 5730 5732 5734 5736
5614 5617 5619 5622 5626 5630 5634 5637 5641 5643 5645 5648 5651 5653 5656 5659 5661 5665 5669 5673 5677 5681 5685 5688 5691 5695 5698 5701 5704 5706 5708 5710 5712 5713 5715 5717 5720 5722 5724 5726 5729 5730
5609 5611 5614 5616 5619 5623 5627 5630 5632 5635 5638 5642 5646 5648 5650 5652 5655 5659 5663 5667 5671 5675 5678 5682 5686 5689 5692 5695 5698 5700 5702 5704 5706 5707 5709 5711 5713 5716 5718 5720 5722 5724
5604 5606 5608 5611 5614 5617 5620 5623 5625 5628 5632 5636 5639 5642 5644 5647 5649 5653 5656 5660 5665 5668 5672 5676 5680 5683 5686 5689 5691 5693 5696 5698 5699 5701 5703 5705 5707 5710 5712 5713 5714 5716
Wind_Speed
49 47 44 44 45 44 44 48 55 58 55 54 52 48 45 45 45 45 42 39 38 37 36 35 36 36 35 33 32 30 28 26 25 24 24 23 23 23 22 22 21 19
51 50 49 46 44 44 42 43 53 61 58 56 57 52 48 48 48 47 44 42 41 39 38 38 37 37 37 36 34 32 30 27 26 25 25 24 24 23 23 23 22 22
55 53 52 51 47 46 44 41 48 61 61 58 60 57 52 50 50 49 47 45 44 42 41 40 39 39 39 38 36 34 32 30 28 26 26 25 24 24 24 24 23 23
58 56 54 53 51 48 47 45 46 54 58 60 62 61 57 53 52 52 50 49 47 45 44 42 41 41 40 39 38 35 33 31 29 27 27 26 25 25 25 24 24 24
60 58 55 54 54 51 49 48 48 49 53 59 62 62 60 57 55 55 53 52 51 48 47 45 43 42 41 40 38 37 35 32 30 28 27 26 25 25 25 25 24 25
62 60 59 57 55 53 50 50 51 49 50 57 61 63 64 63 60 59 57 55 54 51 49 48 46 44 42 41 40 38 37 34 31 30 28 27 26 25 25 25 25 26
62 61 61 60 56 53 52 52 54 52 51 53 54 57 65 67 63 61 60 58 56 53 51 50 48 46 44 42 42 40 38 36 33 31 30 28 27 27 27 26 27 27
62 62 61 60 57 52 50 52 54 55 53 50 46 48 56 62 64 63 62 61 59 55 53 53 50 47 45 43 42 41 40 38 36 33 32 30 29 29 29 29 29 30
63 63 61 59 58 55 52 51 52 53 53 50 45 45 48 53 60 65 64 63 62 57 54 55 52 48 46 45 43 42 41 39 37 36 34 32 31 31 31 31 31 32
65 63 61 60 60 58 55 52 51 51 51 49 46 46 46 47 53 64 69 67 65 61 57 55 54 52 49 47 46 44 43 41 39 38 36 35 33 33 33 33 33 35
69 66 63 63 61 57 55 53 52 51 50 48 46 46 48 47 47 56 68 72 68 65 62 59 57 55 52 50 49 47 46 44 41 40 39 37 36 35 35 35 35 36
73 70 66 65 62 58 55 54 54 53 50 48 47 47 48 50 48 48 59 71 72 66 64 63 61 59 56 53 52 50 48 46 43 42 41 40 39 38 37 37 36 37
74 73 70 69 65 60 57 56 55 54 52 50 50 49 50 52 52 48 49 62 71 67 63 65 64 61 59 55 54 52 49 47 45 43 43 42 41 40 39 39 38 39
74 73 71 71 70 65 60 57 57 57 56 53 52 53 52 52 54 51 46 52 65 67 65 66 66 64 61 57 54 53 50 48 46 44 43 43 43 42 41 41 40 40
75 73 69 70 74 70 63 60 60 60 59 58 56 57 56 54 54 52 48 50 60 68 69 70 70 66 63 59 56 54 52 49 47 46 44 44 44 43 43 42 42 41
74 74 67 68 76 76 67 61 60 61 60 59 59 59 58 57 53 50 51 52 57 63 66 70 71 68 64 60 56 54 52 50 48 47 46 46 46 45 45 44 43 42
73 73 65 62 72 79 73 64 62 62 60 58 60 61 60 58 54 52 56 58 57 57 58 62 68 68 62 57 54 52 52 51 49 48 47 47 47 46 47 46 44 43
70 71 68 61 63 72 75 70 65 63 61 58 59 62 61 60 58 55 57 58 57 57 56 57 61 62 59 56 53 52 52 51 50 49 48 47 46 46 48 48 46 45
68 67 68 65 62 64 69 73 72 69 65 62 62 64 62 60 60 58 57 56 54 54 55 56 56 57 57 55 54 53 53 52 51 51 49 48 48 48 48 49 48 47
69 67 66 67 67 64 61 67 75 76 71 64 64 67 64 61 60 59 57 56 54 52 52 53 54 54 53 52 52 52 53 52 52 53 52 52 52 51 49 50 50 48
66 68 64 61 64 67 63 60 66 75 76 71 67 67 65 62 61 60 58 57 56 53 52 52 53 54 53 52 50 51 53 53 53 55 55 54 55 54 52 51 51 50
60 64 64 58 55 60 65 63 59 64 73 74 70 67 66 64 62 61 61 60 58 56 55 55 55 56 55 53 50 50 52 53 54 56 57 54 53 54 54 53 52 51
57 59 63 62 55 52 56 58 56 57 65 70 70 68 67 66 64 63 63 62 61 59 59 58 57 56 55 53 51 51 52 52 52 54 56 55 53 53 54 54 53 52
57 57 57 58 56 53 53 54 51 49 53 60 67 71 70 67 65 64 64 64 64 63 62 61 60 58 56 55 52 51 52 52 52 54 56 57 56 54 53 54 54 54
56 58 57 55 53 55 58 60 58 53 48 46 52 61 69 71 69 67 65 64 64 65 64 63 62 61 59 57 55 53 52 51 51 54 56 56 57 56 54 54 55 56
56 58 59 57 55 54 55 57 60 62 59 52 48 49 54 61 67 70 69 66 65 65 64 63 63 63 62 60 59 57 55 52 50 52 55 54 54 55 55 55 56 56
Wind_Direction
224 222 226 229 230 233 239 236 226 220 220 221 220 217 215 216 219 222 220 218 220 221 222 224 227 229 231 231 233 234 234 235 236 238 240 241 244 247 249 252 256 262
227 225 226 230 234 236 241 241 227 219 220 220 218 216 213 213 217 220 221 221 221 221 222 223 225 228 229 229 231 232 232 233 233 236 239 241 244 246 249 252 255 260
228 227 227 229 233 236 239 240 228 220 220 220 218 215 211 211 215 220 222 223 224 223 223 224 225 227 228 228 229 229 230 230 230 233 237 240 243 246 248 251 254 258
226 227 229 230 232 234 234 235 232 226 223 221 219 216 211 210 214 219 222 224 225 225 224 225 226 228 229 229 229 229 230 230 229 231 235 238 242 245 248 250 254 257
225 226 228 230 231 232 232 232 234 233 229 226 223 218 213 210 212 217 222 224 225 226 225 226 227 229 230 231 231 230 230 230 229 231 234 238 241 245 249 250 254 257
224 225 227 229 230 231 232 231 232 234 233 231 228 222 216 213 212 215 220 223 225 225 225 226 228 230 231 231 231 231 231 231 230 231 234 237 240 245 250 252 254 257
223 224 226 229 231 231 231 231 229 230 231 232 232 228 221 216 213 215 218 221 223 225 226 227 228 230 232 232 232 231 232 232 231 232 234 237 240 244 249 252 255 256
223 223 224 226 228 228 229 229 227 228 230 229 232 235 230 222 217 215 217 220 221 223 226 228 229 231 233 234 234 233 233 233 232 232 234 236 240 244 248 252 254 256
223 224 224 225 225 224 227 228 226 227 230 229 230 235 237 233 224 219 219 221 222 222 224 226 227 230 233 235 236 235 234 234 234 234 235 236 239 244 247 251 254 257
223 226 225 224 223 223 225 227 227 227 228 230 232 233 236 240 234 225 222 223 223 222 223 225 227 228 231 233 235 236 236 235 235 236 237 237 239 243 247 250 254 257
221 224 226 224 221 221 224 225 228 229 227 229 233 233 234 238 238 232 227 225 224 224 224 226 228 228 229 231 233 236 237 237 236 235 236 238 239 242 246 249 253 257
220 222 225 226 223 220 221 224 227 229 230 231 230 231 234 236 237 238 233 227 224 225 226 227 227 228 229 230 231 234 237 239 239 237 237 238 240 242 245 249 252 257
219 220 223 226 225 221 220 223 227 229 231 233 230 229 233 236 236 240 239 230 225 226 229 230 229 230 230 231 232 234 236 239 240 240 238 239 241 242 245 249 252 255
219 220 224 227 226 222 219 222 225 227 230 232 231 230 232 235 236 237 239 233 228 228 233 233 231 231 231 231 232 233 235 237 239 240 241 241 242 243 246 250 253 256
218 219 224 229 228 223 220 220 223 226 228 231 232 231 231 234 236 238 239 237 232 231 233 234 232 230 230 230 230 232 235 237 238 240 242 243 243 245 247 250 253 257
218 218 222 230 229 225 222 220 223 227 228 230 233 233 232 232 235 239 241 239 235 232 232 233 231 229 229 228 228 231 234 236 237 240 243 245 246 247 248 250 252 255
219 218 219 226 228 226 224 221 222 226 228 229 232 233 233 232 232 235 239 237 233 232 234 234 231 229 229 228 228 231 233 234 236 239 242 246 248 249 250 250 251 253
220 219 220 223 224 224 225 223 223 225 226 228 230 230 231 232 231 233 237 237 235 233 233 232 229 229 230 229 230 233 235 235 236 237 240 244 247 250 251 251 251 251
223 222 222 225 224 223 225 225 223 225 227 230 231 229 228 230 231 233 236 237 237 235 233 231 229 229 230 232 234 236 238 239 239 238 239 242 246 248 250 251 252 252
226 225 224 228 229 227 228 229 228 227 228 230 231 229 228 230 231 232 235 237 237 238 238 238 236 233 233 236 238 239 238 240 242 242 241 242 244 246 248 251 253 253
228 227 225 227 231 231 230 231 231 229 228 229 231 231 231 233 233 233 235 237 238 239 241 243 243 240 239 242 243 241 239 241 244 244 244 244 245 245 246 248 252 254
228 228 225 223 229 231 227 226 230 231 231 232 233 233 233 234 235 235 236 237 238 240 241 242 244 245 245 247 247 243 241 243 246 246 245 245 246 246 246 246 249 252
228 229 228 227 229 229 225 225 230 234 234 233 233 232 233 233 234 234 236 237 238 240 241 241 244 246 247 248 248 245 243 244 247 247 245 245 247 247 246 246 248 251
227 229 231 232 232 230 226 226 229 233 234 233 233 233 233 233 234 235 236 238 238 239 240 241 244 247 247 247 247 246 245 245 246 246 245 246 248 248 248 247 247 250
227 229 230 232 233 233 230 230 232 234 234 232 234 236 234 235 237 238 238 239 239 240 240 242 244 246 247 247 246 246 246 247 248 247 245 247 249 248 248 248 247 249
228 230 231 232 233 234 235 235 237 238 237 234 235 237 237 236 237 239 240 240 241 242 242 243 245 247 247 247 247 247 247 248 251 249 246 248 250 247 246 248 248 249